アマラウ彗星

C/2020 O2 ( Amaral )

English version
Home page
Updated on May 15, 2024

---------------------------------------------------------------------

・ プロフィール

発見日 2020年7月23日
発見光度 18.1等
発見者 Leonardo S. Amaral (Rio de Janeiro, Brazil)

・ 写真集

・ 軌道要素

Epoch 2024 Mar. 31.0 TT = JDT 2460400.5
T 2021 Aug. 28.09961 TT                                 Rudenko
q   4.8611224            (2000.0)            P               Q
z  -0.0001611      Peri.   10.26195     -0.17062208     +0.34052175
 +/-0.0000005      Node   256.78791     -0.95790411     -0.27720690
e   1.0007830      Incl.   71.76215     -0.23088488     +0.89844381
>From 1615 observations 2020 July 23-2023 Sept. 21, mean residual 0".5.

・ 星図

・ 光度変化

        m1 = 0.5 + 5 logΔ + 17.5 log r(t - 80)

---------------------------------------------------------------------

軌道要素はM.P.E.C. 2024-J304に掲載されたものです。
星図はステラナビゲータ Ver.10 (アストロアーツ) で作成したものです。
光度グラフはComet for Windowsで作成したものです。

---------------------------------------------------------------------

Copyright(C) Seiichi Yoshida (comet@aerith.net). All rights reserved.